sat.trackr.live / text

‹ back to catalog

QIANFAN-27

NORAD 61560 · 2024-185J

PAYLOAD ACTIVE UNKNOWN

§ Identity

Operator
Country
PRC
Launch date
2024-10-15
Launch site
TAISC
Launch vehicle
Mass (kg)
RCS (m²)

External: N2YO · Heavens-Above · Gunter

§ Orbital elements

Epoch: 2026-05-25T01:59:02.838336Z

Period
100.87 min
Inclination
88.9837°
Eccentricity
0.0009644
Mean motion
14.27516765 rev/d
Perigee alt
793.1 km
Apogee alt
807.0 km
Semi-major
7,178.2 km
B*
1.2648e-4
RAAN
57.7835°
Arg perigee
106.0489°
Mean anomaly
254.1768°
Rev number
9,346

§ Raw data

QIANFAN-271 61560U 24185J   26145.08267174  .00000326  00000+0  12648-3 0  99952 61560  88.9837  57.7835 0009644 106.0489 254.1768 14.27516765 93468

JSON: /api/v1/satellites/61560 · /tle

For live sub-satellite position, see the globe view (requires WebGL).

§ Visibility from observer

Set your observer location to see the next 7 days of passes ≥ 10°. The values pass through the URL so the page stays shareable.

No JS? Fill the form by hand. The geolocation button needs JavaScript.